Challenge Vals & Châteaux

La Course Du Cazier - Marcinelle (4.50 km)

dimanche 17 octobre 2021

Le Classement original se trouve sur : http://www.chronorace.be
CHALLENGE VALS & CHÂTEAUX
LA COURSE DU CAZIER - MARCINELLE
DISTANCE : 4.50 km
dimanche 17 octobre 2021
 
Place Dos NOM Catégorie Pl/cat Temps Temps/km Vitesse
1 10224 NIHOUL SIMON SEH 1 0:16:25 03:39 16.45
2 10186 KANFOUD LOTFI SEH 2 0:16:36 03:41 16.27
3 10188 FEVRIER THOMAS SEH 3 0:16:37 03:42 16.25
4 10258 NOEL NOLANN EH 1 0:16:40 03:42 16.20
5 10170 GILOTEAU CORENTHIN SEH 4 0:18:25 04:06 14.66
6 10245 BERTIAUX MICHAEL V1 1 0:18:28 04:06 14.62
7 10766 MOULIN ARNAUD SEH 5 0:18:43 04:10 14.43
8 10214 GONDRY CORENTIN SEH 6 0:18:43 04:10 14.43
9 10279 TEMMERMAN CEDRIC SEH 7 0:18:45 04:10 14.40
10 10278 DARDENNE NICOLAS SEH 8 0:18:52 04:12 14.31
11 10264 SERON NICOLAS SEH 9 0:18:55 04:12 14.28
12 10895 LECOHIER THIBAUT JH 1 0:19:31 04:20 13.84
13 10222 STOPPELE LUKA SEH 10 0:19:32 04:20 13.83
14 10765 SCHIKOWSKY ALEX SEH 11 0:19:32 04:20 13.83
15 10254 DUBUCQ VICTOR SEH 12 0:19:33 04:21 13.81
16 10257 DEVOS AXEL SEH 13 0:19:53 04:25 13.58
17 10389 QUERTINMONT ALEXANDRE SEH 14 0:19:56 04:26 13.55
18 10256 WECKHUYSEN THOMAS SEH 15 0:19:59 04:26 13.51
19 10150 GONAY JEROME SEH 16 0:20:02 04:27 13.48
20 10890 FAUCON BASTIEN SEH 17 0:20:04 04:28 13.46
21 10843 BONFANTI THIERRY V1 2 0:20:15 04:30 13.34
22 10233 VAN AELST SACHA EH 2 0:20:19 04:31 13.29
23 10211 MARTENS ETHAN EH 3 0:20:19 04:31 13.29
24 10756 COLLIN KEVIN SEH 18 0:20:25 04:32 13.23
25 10114 GOCHARD MANU V2 1 0:20:26 04:32 13.22
26 10196 PERRONE JEAN-LOUIS V1 3 0:20:34 04:34 13.13
27 10227 POCHET BENOIT V2 2 0:20:45 04:37 13.01
28 10210 MARTENS JULIEN SEH 19 0:20:52 04:38 12.94
29 10873 LEBRUN ANOUK EF 1 0:21:07 04:41 12.79
30 10190 BAUDSON DAVID V1 4 0:21:22 04:45 12.64
31 10217 HERQUIN CLAUDY V2 3 0:21:46 04:50 12.41
32 10265 CARLIER VICTOR SEH 20 0:21:52 04:51 12.35
33 10171 HENRY CLÉMENT JH 2 0:21:55 04:52 12.32
34 10247 CLAESSENS JÉRÉMY SEH 21 0:22:00 04:53 12.28
35 10753 BOUCQ SYLVAIN SEH 22 0:22:26 04:59 12.04
36 10173 BOMBART SIMON SEH 23 0:22:28 04:59 12.02
37 10157 THIBAUT KEVIN SEH 24 0:22:35 05:01 11.96
38 10165 LIMELETTE MAENA EF 2 0:22:35 05:01 11.96
39 10166 LIMELETTE JEROME SEH 25 0:22:37 05:01 11.94
40 10212 SANTAMARIA GIUSY SEF 1 0:22:39 05:02 11.92
41 10841 VAN THIELEN ANTHONY SEH 26 0:22:45 05:03 11.87
42 10191 LECHEVIN FABIAN SEH 27 0:22:52 05:05 11.81
43 10207 RAMI SOUMEYA EF 3 0:22:55 05:05 11.78
44 10887 CLEMENTE ANTONE JH 3 0:23:37 05:15 11.43
45 10903 THYS ROBIN SEH 28 0:23:39 05:15 11.42
46 10845 BAERT ERIC V2 4 0:23:40 05:15 11.41
47 10846 COLAUX ADRIEN SEH 29 0:23:40 05:15 11.41
48 10172 DEGRAEVE CINDY A1 1 0:23:47 05:17 11.35
49 10758 MICHEL ELODIE SEF 2 0:23:58 05:19 11.27
50 10250 CAKIR METIN EH 4 0:24:02 05:20 11.24
51 10237 ALAFAKIS SIMON EH 5 0:24:02 05:20 11.24
52 10879 CHALMAGNE ELEONORE JF 1 0:24:03 05:21 11.23
53 10161 CHALMAGNE SÉBASTIEN V1 5 0:24:04 05:21 11.22
54 10274 ROUSSEL SANDRINE A1 2 0:24:08 05:22 11.19
55 10261 FIVEZ LAURENT SEH 30 0:24:16 05:23 11.13
56 10788 LEJUSTE LOANA SEF 3 0:24:18 05:24 11.11
57 10197 WARDEGA SERGE V2 5 0:24:33 05:27 11.00
58 10761 HELLEBOSCH XAVIER SEH 31 0:24:34 05:27 10.99
59 10177 SEVERINO THOMAS SEH 32 0:24:34 05:27 10.99
60 10251 CAKIR ERDÏC SEH 33 0:24:40 05:29 10.95
61 10789 MICHEL MAEVE JF 2 0:24:49 05:31 10.88
62 10146 PENEL JEANNE SEF 4 0:24:55 05:32 10.84
63 10757 MANNARINO LAURA SEF 5 0:25:01 05:33 10.79
64 10221 BAUDUIN ERIC V2 6 0:25:05 05:34 10.77
65 10255 BINET MARIE SEF 6 0:25:15 05:37 10.70
66 10234 MILONE LORENZO V1 6 0:25:16 05:37 10.69
67 10243 LACOUR ELISE SEF 7 0:25:16 05:37 10.69
68 10240 DESPAS PERRINE SEF 8 0:25:17 05:37 10.68
69 923 FOULARD VALENTIN SEH 34 0:25:23 05:38 10.64
70 10883 JACOBS DEVON JH 4 0:25:29 05:40 10.60
71 10893 GRANGERAY JULIEN SEH 35 0:25:31 05:40 10.58
72 10164 DEWEZ YAËL JH 5 0:25:37 05:41 10.54
73 10769 DEWEZ SAMUEL SEH 36 0:25:39 05:42 10.53
74 10792 MESTRÉ EVE EF 4 0:26:03 05:47 10.37
75 10147 VAN WAAS PAUL SEH 37 0:26:08 05:48 10.33
76 10270 LECHIEN KRISTOPHE JEAN V1 7 0:26:13 05:49 10.30
77 10229 MORENO-PASCUAL ANTHONY SEH 38 0:26:14 05:50 10.29
78 10900 PRZYSIUDA ARNAUD SEH 39 0:26:15 05:50 10.29
79 10787 LEJUSTE FABIEN V2 7 0:26:24 05:52 10.23
80 10775 MITTTA KYLIAN EH 6 0:26:30 05:53 10.19
81 10262 CHARGUEROT STÉPHANIE SEF 9 0:26:32 05:54 10.18
82 10220 POULLIER ANTOINE V1 8 0:26:34 05:54 10.17
83 10793 MESTRÉ GILLES EH 7 0:26:36 05:55 10.15
84 10849 BRACKE CHRISTELLE A1 3 0:26:56 05:59 10.03
85 10889 DUBOIS MAXIME SEH 40 0:26:57 05:59 10.02
86 10904 VANCON LOLA SEF 10 0:26:59 06:00 10.01
87 10897 MATEUS MÉLANIE SEF 11 0:26:59 06:00 10.01
88 10215 VERSPECHT VERONIQUE A2 1 0:27:00 06:00 10.00
89 10216 PASQUE MICHEL V3 1 0:27:01 06:00 10.00
90 10182 DUMOULIN-MINGUET RÉMY SEH 41 0:27:02 06:00 9.99
91 10192 CROON ALISON SEF 12 0:27:02 06:00 9.99
92 10199 GODDEAU MARLEEN A3 1 0:27:03 06:01 9.98
93 10154 SCANDELLA BENJAMIN SEH 42 0:27:17 06:04 9.90
94 10136 OTTEN BERNARD V1 9 0:27:22 06:05 9.87
95 10878 BOI EVAN JH 6 0:27:25 06:05 9.85
96 10888 DIEUDONNÉ ALEXANDRA JF 3 0:27:32 06:07 9.81
97 10189 SAUCE ORIANE SEF 13 0:27:45 06:10 9.73
98 10381 COULON NATHANAEL SEH 43 0:27:47 06:10 9.72
99 10386 DIEUDONNÉ AMANDINE EF 5 0:27:52 06:11 9.69
100 10174 LEFEBVRE LAURENT V2 8 0:27:52 06:11 9.69
101 10854 LARCIN JERÔME SEH 44 0:27:59 06:13 9.65
102 10892 FRADCOURT LOUIS JH 7 0:28:00 06:13 9.64
103 10901 ROBERT CHARLOTTE SEF 14 0:28:01 06:13 9.64
104 10754 DECLERCQ LENA JF 4 0:28:07 06:15 9.60
105 10842 DRUINNE FANNY JF 5 0:28:09 06:15 9.59
106 10135 OTTEN ELINE EF 6 0:28:15 06:17 9.56
107 10219 MANSART CATHERINE A3 2 0:28:21 06:18 9.53
108 10248 MARION LINDSAY SEF 15 0:28:31 06:20 9.47
109 10838 SA ANA A1 4 0:28:38 06:22 9.43
110 10840 FONTES E SA DUARTE V1 10 0:28:38 06:22 9.43
111 10249 RULENS NANCY A1 5 0:28:39 06:22 9.43
112 10886 VAN STIPHOUT LOU EF 7 0:28:42 06:23 9.41
113 10276 DUEZ CHRISTOPHE V1 11 0:28:44 06:23 9.40
114 10195 DETAYE CAMILLE EF 8 0:28:45 06:23 9.39
115 10242 DUPONT JUSTINE SEF 16 0:28:50 06:24 9.37
116 10241 CRETELLE FLORENCE SEF 17 0:28:51 06:25 9.36
117 10835 ANSLOT SACHA XXX   0:28:56 06:26 9.33
118 10774 MITTTA MICHAEL V1 12 0:28:57 06:26 9.33
119 10263 DESSART OLIVIER SEH 45 0:28:58 06:26 9.32
120 10836 DEBLOCK SABINE A2 2 0:28:59 06:26 9.32
121 10871 JACQUES FLORIAN EH 8 0:29:01 06:27 9.31
122 10891 FORGET LOUANE JF 6 0:29:02 06:27 9.30
123 10770 DEWEZ LAURENT V1 13 0:29:04 06:27 9.29
124 10898 MATHELIN WENDY SEF 18 0:29:05 06:28 9.29
125 10175 GODARD INES SEF 19 0:29:09 06:29 9.26
126 10198 LEROY DAMIEN V1 14 0:29:14 06:30 9.24
127 10194 DETAYE FRANCOIS V1 15 0:29:15 06:30 9.23
128 10148 VOSSE SEB SEH 46 0:29:17 06:30 9.22
129 10228 SONCK INGRID A2 3 0:29:17 06:30 9.22
130 10167 CORNELIS ERIC V2 9 0:29:20 06:31 9.21
131 10169 D'AMBROSO ROMANO V1 16 0:29:29 06:33 9.16
132 10159 DUPUIS KARINE A3 3 0:29:30 06:33 9.15
133 10246 VAN REUSEL CHRISTOPHE V1 17 0:29:31 06:33 9.15
134 10784 DUFOUR ANTOINE JH 8 0:29:32 06:34 9.14
135 10858 DUBOIS GÉRALDINE A1 6 0:29:34 06:34 9.13
136 10158 GEUBEL JOELLE EF 9 0:29:34 06:34 9.13
137 10160 DUPONT MARYVONNE A3 4 0:29:35 06:34 9.13
138 10785 BROUILLARD EMMANUEL V1 18 0:29:38 06:35 9.11
139 10884 POLOMÉ ADRIEN JH 9 0:29:39 06:35 9.11
140 10388 DESMET PAULINE SEF 20 0:29:45 06:37 9.08
141 10223 LEFEVER MATHEO EH 9 0:29:48 06:37 9.06
142 10134 DERUE STÉPHANIE SEF 21 0:29:48 06:37 9.06
143 10850 BAEKELAND MURIEL A3 5 0:29:55 06:39 9.03
144 10260 MARCHAL QUENTIN V1 19 0:29:58 06:39 9.01
145 10200 NAVEZ SANDY SEF 22 0:30:04 06:41 8.98
146 10778 VAN DEN BOSSCHE DORIAN EH 10 0:30:05 06:41 8.98
147 10777 VAN DEN BOSSCHE JAROD EH 11 0:30:07 06:41 8.97
148 10253 SEPTON MARIE-EMILIE A3 6 0:30:09 06:42 8.96
149 10201 GLINNE BERNADETTE A3 7 0:30:09 06:42 8.96
150 10773 DEFRISE CEDRIC V1 20 0:30:11 06:42 8.95
151 10133 VAN SEVEREN LOTTE SEF 23 0:30:12 06:43 8.94
152 10152 BRACONNIER PASCALINE SEF 24 0:30:13 06:43 8.94
153 10385 ANCART ANGÉLIQUE A2 4 0:30:15 06:43 8.93
154 10877 PRIMUCCI CAMILLE EH 12 0:30:15 06:43 8.93
155 10115 SERVILLE AMANDINE SEF 25 0:30:15 06:43 8.93
156 10885 SEGERS LORIANE JF 7 0:30:16 06:43 8.92
157 10881 HENIN EMILIE SEF 26 0:30:22 06:45 8.89
158 10851 OLMO BENJAMIN SEH 47 0:30:22 06:45 8.89
159 10902 SERLET JULIE SEF 27 0:30:23 06:45 8.89
160 10852 MARIEN ANNE-SOPHIE A1 7 0:30:23 06:45 8.89
161 10880 DESHAYE PHOEBY JF 8 0:30:34 06:47 8.83
162 10882 HENIN VIRGINIE A1 8 0:30:34 06:47 8.83
163 10783 DUFOUR MARIE JF 9 0:30:37 06:48 8.82
164 10861 SONET VALERIE A2 5 0:30:40 06:49 8.81
165 10847 VAN RANST SARAH SEF 28 0:30:41 06:49 8.80
166 10184 LEFEVER BENOIT V1 21 0:30:50 06:51 8.76
167 10185 LEFEVER TIMOTHE XXX   0:30:52 06:51 8.75
168 10206 CAMBIER SOFIA EF 10 0:30:52 06:51 8.75
169 10205 CAMBIER FREDERIC V1 22 0:30:56 06:52 8.73
170 10269 POULAIN CAMILLE JF 10 0:30:58 06:53 8.72
171 10839 TUBIERMONT FABIENNE A2 6 0:31:00 06:53 8.71
172 10204 DA SILVA MARTINS MAYA EF 11 0:31:01 06:53 8.71
173 10209 DEROOVER VANESSA A1 9 0:31:03 06:54 8.70
174 10239 FONTAINE CELINE SEF 29 0:31:05 06:54 8.69
175 10225 TOOSDEL ALAIN V3 2 0:31:06 06:55 8.68
176 10848 DEPLUS MATHILDE SEF 30 0:31:10 06:55 8.66
177 10238 ROBIN NATHALIE A2 7 0:31:30 07:00 8.57
178 10213 BARBIER STEPHANE V1 23 0:31:30 07:00 8.57
179 10149 LEJEUNE SARAH A1 10 0:31:30 07:00 8.57
180 10232 DIANA STÉPHANIE A1 11 0:31:35 07:01 8.55
181 10231 VERSAEVEL ROMUALD V1 24 0:31:39 07:02 8.53
182 10387 DEHAN LAETITIA SEF 31 0:31:40 07:02 8.53
183 10187 DOMBRET GERALD V1 25 0:31:46 07:03 8.50
184 10156 DOMBRET ENORA EF 12 0:31:46 07:03 8.50
185 10168 GEORGOULIS NATACHA SEF 32 0:31:48 07:04 8.49
186 10145 VERSCHOREN DAVID V1 26 0:32:00 07:07 8.44
187 10844 RONCHESE TONI V3 3 0:32:10 07:09 8.40
188 10791 COBUT ETIENNE SEH 48 0:32:13 07:09 8.38
189 10790 CARPENTIER JENNIFER A1 12 0:32:14 07:10 8.38
190 10782 COLINET VALÉRIE A2 8 0:32:24 07:12 8.34
191 10862 CALLAERT OCÉANE EF 13 0:32:25 07:12 8.33
192 10781 LELUPE AURÉLIE A1 13 0:32:26 07:12 8.33
193 10268 CAELS JIMMY SEH 49 0:32:33 07:14 8.30
194 10905 VERHAEGHE LOLA SEF 33 0:32:34 07:14 8.29
195 10178 THIERY LÉONIE SEF 34 0:32:46 07:17 8.24
196 10894 HAMON MARION SEF 35 0:32:49 07:17 8.23
197 10837 PARMENTIER STÉPHANIE A1 14 0:32:58 07:19 8.19
198 10779 DESTREBECQ MARJORIE SEF 36 0:32:58 07:19 8.19
199 10244 LEMERCIER CHARLOTTE SEF 37 0:33:10 07:22 8.14
200 10277 DIEPENDAELE PIERRE V4 1 0:33:16 07:23 8.12
201 10859 FIVEZ JULIE A1 15 0:33:21 07:25 8.10
202 10163 DERYKER MURIEL A2 9 0:33:25 07:25 8.08
203 10180 GENEVOIS JUSTINE SEF 38 0:33:25 07:25 8.08
204 10181 DE COOMAN EDWIN SEH 50 0:33:26 07:26 8.08
205 10162 CARLIER DENIS V2 10 0:33:26 07:26 8.08
206 10767 SEVERINO NOÉMIE EF 14 0:33:33 07:27 8.05
207 10153 ROBIN PAULINE SEF 39 0:33:42 07:29 8.01
208 10280 DELCOURT SEVERINE V1 27 0:33:46 07:30 8.00
209 10259 LANDRAIN VIRGINIE A1 16 0:34:08 07:35 7.91
210 10776 BRUART SEVERINNE A1 17 0:34:20 07:38 7.87
211 10142 DEVOS JEAN-FRANÇPIS V1 28 0:34:31 07:40 7.82
212 10764 PECNIK NADINE A3 8 0:34:33 07:41 7.82
213 10140 VANDER JEUGT WENDY SEH 51 0:34:34 07:41 7.81
214 10755 RECCHIA SANDRA A2 10 0:34:37 07:41 7.80
215 10183 CIMAN BÉATRICE A2 11 0:34:41 07:42 7.79
216 10138 BOUCQUEAU FABIAN SEH 52 0:34:41 07:42 7.79
217 10155 - ERSIN SEH 53 0:34:45 07:43 7.77
218 10218 MANSART ALISON SEF 40 0:34:45 07:43 7.77
219 10176 BAUDUIN KRYSTELLE A1 18 0:34:46 07:43 7.77
220 10226 CURCURACI CATHY A1 19 0:34:53 07:45 7.74
221 10853 VANNOORENBERGHE PHILIPPE V2 11 0:34:56 07:46 7.73
222 10275 DANDOIS LAURENCE A2 12 0:35:09 07:49 7.68
223 10864 DA SILVA LÉA EF 15 0:35:25 07:52 7.63
224 10266 DUFAYS VINCIANE A2 13 0:35:28 07:53 7.61
225 10141 POLAIN MÉLANIE A1 20 0:35:38 07:55 7.58
226 10139 BRANCATELLO LUCIE EF 16 0:35:40 07:55 7.57
227 10203 VASILE INES SEF 41 0:35:53 07:58 7.53
228 10202 VASILE GREGORY V1 29 0:35:54 07:59 7.52
229 10137 VANDERCAMMEN LINDSAY A1 21 0:36:09 08:02 7.47
230 10896 LEFEBVRE MELVIN SEH 54 0:36:24 08:05 7.42
231 10899 POLLET MATTIS SEH 55 0:36:25 08:05 7.42
232 246 MAREZ MATHIEU SEH 56 0:36:25 08:05 7.42
233 10151 NICOLAS QUENTIN SEH 57 0:36:28 08:06 7.41
234 10759 DEMARBRE MAÏTÉ A1 22 0:36:33 08:07 7.39
235 10760 DEMARBE JUSTINE SEF 42 0:36:34 08:07 7.39
236 10236 ALAFAKIS ZOÉ XXX   0:36:50 08:11 7.33
237 10193 ALAFAKIS WILLIAM XXX   0:36:50 08:11 7.33
238 10235 DELOBEL CHARLOTTE A1 23 0:36:56 08:12 7.31
239 10144 BUXANT CLAIRE A1 24 0:36:57 08:13 7.31
240 10230 SIMON GUN A2 14 0:36:58 08:13 7.31
241 10857 DELVAUX PHILIPPE V2 12 0:37:10 08:15 7.27
242 10855 CARPENT ISABELLE A2 15 0:37:11 08:16 7.26
243 10780 DAGNELY JULIE A1 25 0:37:20 08:18 7.23
244 10252 ROUSSEAUX FLORENCE A2 16 0:37:20 08:18 7.23
245 10372 CALANDRE MARINE SEF 43 0:37:36 08:21 7.18
246 10768 VASTARELLA BIANCA A1 26 0:37:47 08:24 7.15
247 10271 HAMEL AUDREY A1 27 0:37:49 08:24 7.14
248 10786 COSSEDDU CELIA SEF 44 0:38:08 08:28 7.08
249 10267 GASMANE LAURENCE A2 17 0:39:24 08:45 6.85
250 10384 MARET ANTOINE JH 10 0:39:28 08:46 6.84
251 10383 EL BANNA SARAH A2 18 0:39:29 08:46 6.84
252 10382 MARET OLIVIER V2 13 0:39:30 08:47 6.84
253 10208 RAI KADIJA A1 28 0:39:44 08:50 6.80
254 10282 D'AGOSTINO RACHEL A1 29 0:40:05 08:54 6.74
255 10281 D'AGOSTINO REBECCA A1 30 0:40:06 08:55 6.73
256 10762 PATIENT JOCELYNE A3 9 0:41:53 09:18 6.45
257 10763 EVERAERT ALAIN V3 4 0:42:10 09:22 6.40
258 10772 LESOINNE LAURENCE A2 19 0:42:51 09:31 6.30
259 10771 BERNARD DAPHNÉ A1 31 0:43:27 09:39 6.22
260 10865 DEHASPE SABRINA A2 20 0:48:27 10:46 5.57
261 10866 DÉTOUR ÉLINE EF 17 0:49:22 10:58 5.47
262 10870 JACQUES AMANDINE JF 11 0:49:41 11:02 5.44
263 10867 GÉMEAUX DOUINIA EF 18 0:49:51 11:05 5.42
264 10874 LEBRUN HUGO JH 11 0:49:56 11:06 5.41
265 10863 COOPMANS AMINA EF 19 0:50:58 11:19 5.30
266 10872 KAYA ASYA EF 20 0:50:59 11:20 5.30
267 10273 DI NUNZIO DELINA A3 10 0:53:18 11:51 5.07
268 10272 PIRSON LYDIA A2 21 0:53:19 11:51 5.07
269 10143 GEORGES FRANÇOIS V3 5 0:54:51 12:11 4.92
270 10179 STREEL MICHELINE A3 11 1:06:57 14:52 4.03
               
Nos dernières videos